EW2725 Weather Reports


Display with metric or nautical units.
time (UTC)temp
F
wind
direction
speed
MPH
gust
MPH
rain 1hr
in
rain 24hr
in
rain mn
in
humidity
%
barometer
mb
20210506104007 49 296 2.0 3.0 0.00 0.07 0.00 94 1008.2
20210506103006 49 307 0.0 2.0 0.00 0.07 0.00 94 1007.9
20210506102506 49 307 0.0 2.0 0.00 0.07 0.00 94 1007.8
20210506102007 48 307 0.0 2.0 0.00 0.07 0.00 94 1007.8
20210506101019 49 307 0.0 2.0 0.00 0.07 0.00 94 1007.7
20210506100506 49 307 0.0 2.0 0.00 0.07 0.00 94 1007.6
20210506100006 49 307 0.0 1.0 0.00 0.07 0.00 94 1007.6
20210506095506 49 307 0.0 2.0 0.00 0.07 0.00 94 1007.5
20210506095007 49 307 0.0 2.0 0.00 0.07 0.00 94 1007.5
20210506094506 49 273 0.0 1.0 0.00 0.07 0.00 94 1007.5
20210506094007 49 273 0.0 1.0 0.00 0.07 0.00 94 1007.4
20210506091020 49 272 0.0 1.0 0.00 0.07 0.00 94 1007.2
20210506090507 49 271 0.0 1.0 0.00 0.07 0.00 94 1007.1
20210506085520 49 265 0.0 1.0 0.00 0.07 0.00 94 1007.0
20210506085006 49 265 0.0 1.0 0.00 0.07 0.00 94 1007.0
20210506083506 48 265 1.0 3.0 0.00 0.07 0.00 94 1006.8
20210506083006 48 281 0.0 3.0 0.00 0.07 0.00 94 1006.8
20210506082006 48 281 0.0 1.0 0.00 0.07 0.00 94 1006.8
20210506081007 47 281 0.0 6.0 0.00 0.07 0.00 94 1006.7
20210506080506 47 280 0.0 0.0 0.00 0.07 0.00 94 1006.7
20210506075506 47 280 0.0 0.0 0.00 0.07 0.00 94 1006.5
20210506075006 47 280 0.0 0.0 0.00 0.07 0.00 94 1006.5
20210506074506 47 280 0.0 3.0 0.00 0.07 0.00 94 1006.6
20210506074006 47 280 0.0 0.0 0.00 0.07 0.00 94 1006.5
20210506073506 47 280 0.0 0.0 0.00 0.07 0.00 94 1006.5
20210506073007 47 280 0.0 2.0 0.00 0.07 0.00 94 1006.5
20210506072506 47 280 0.0 0.0 0.00 0.07 0.00 94 1006.5
20210506072017 47 280 0.0 0.0 0.00 0.07 0.00 94 1006.6
20210506070506 47 280 0.0 2.0 0.00 0.07 0.00 94 1006.7
20210506070007 47 280 1.0 3.0 0.00 0.07 0.00 94 1006.6
20210506064506 47 278 0.0 2.0 0.00 0.07 0.00 94 1006.5
20210506062007 47 345 0.0 0.0 0.00 0.07 0.00 94 1006.3
20210506061506 46 345 0.0 0.0 0.00 0.07 0.00 94 1006.2
20210506061006 46 345 0.0 0.0 0.00 0.07 0.00 94 1006.3
20210506060507 46 345 0.0 1.0 0.00 0.07 0.00 94 1006.2
20210506055506 46 345 0.0 2.0 0.00 0.07 0.00 94 1006.3
20210506054506 46 345 0.0 2.0 0.00 0.07 0.00 94 1006.3
20210506054007 46 345 0.0 2.0 0.00 0.07 0.00 94 1006.4
20210506053506 46 345 0.0 1.0 0.00 0.07 0.00 94 1006.4
20210506052506 46 345 0.0 0.0 0.00 0.07 0.00 94 1006.5
20210506052006 46 345 0.0 2.0 0.00 0.07 0.00 94 1006.5
20210506051006 46 345 0.0 0.0 0.00 0.07 0.00 94 1006.5
20210506050007 46 345 0.0 0.0 0.00 0.07 0.00 94 1006.4
20210506045506 46 345 0.0 0.0 0.00 0.07 0.00 94 1006.5
20210506045007 46 345 0.0 2.0 0.00 0.07 0.00 94 1006.5
20210506043507 46 345 0.0 2.0 0.00 0.07 0.00 94 1006.5
20210506042506 46 345 0.0 2.0 0.00 0.07 0.00 94 1006.7
20210506042006 46 345 0.0 1.0 0.00 0.07 0.00 94 1006.8
20210506041006 46 345 0.0 1.0 0.00 0.07 0.00 94 1006.6
20210506040506 46 345 0.0 0.0 0.00 0.07 0.00 94 1006.3
20210506040006 46 345 0.0 1.0 0.00 0.07 0.00 94 1006.3
20210506034506 46 345 0.0 0.0 0.00 0.07 0.07 94 1006.3
20210506034007 46 345 0.0 0.0 0.00 0.07 0.07 94 1006.3
20210506033507 46 345 0.0 0.0 0.00 0.07 0.07 94 1006.4
20210506033006 46 345 0.0 0.0 0.00 0.07 0.07 94 1006.3
20210506032517 46 345 0.0 1.0 0.00 0.07 0.07 94 1006.3
20210506031517 46 345 0.0 0.0 0.00 0.07 0.07 94 1006.3
20210506031006 46 345 0.0 2.0 0.00 0.07 0.07 94 1006.2
20210506030506 46 345 0.0 1.0 0.00 0.07 0.07 94 1006.2
20210506025505 46 345 0.0 1.0 0.00 0.07 0.07 94 1006.1
20210506025006 46 345 0.0 1.0 0.00 0.07 0.07 94 1006.1
20210506024006 46 323 0.0 3.0 0.00 0.07 0.07 94 1006.0
20210506023506 46 323 0.0 3.0 0.00 0.07 0.07 94 1006.2
20210506023006 46 323 0.0 2.0 0.00 0.07 0.07 94 1006.2
20210506022506 46 323 0.0 3.0 0.00 0.07 0.07 94 1006.4
20210506022007 46 323 1.0 3.0 0.00 0.07 0.07 94 1006.6
20210506021506 46 323 0.0 3.0 0.00 0.07 0.07 94 1006.5
20210506020006 46 349 0.0 2.0 0.00 0.07 0.07 94 1006.5
20210506015506 46 349 0.0 2.0 0.00 0.07 0.07 94 1006.4
20210506015006 46 349 0.0 2.0 0.00 0.07 0.07 94 1006.3
20210506014006 46 349 1.0 3.0 0.00 0.07 0.07 94 1005.8
20210506013506 46 349 0.0 1.0 0.00 0.07 0.07 94 1005.8
20210506012007 46 349 0.0 1.0 0.00 0.07 0.07 94 1005.8
20210506011506 46 349 0.0 2.0 0.00 0.07 0.07 94 1005.8
20210506010506 46 349 0.0 1.0 0.00 0.07 0.07 94 1005.7
20210506005506 46 349 1.0 3.0 0.00 0.07 0.07 94 1005.7
20210506005006 46 349 0.0 1.0 0.01 0.07 0.07 94 1005.6
20210506004506 46 349 0.0 3.0 0.01 0.07 0.07 94 1005.6
20210506004006 46 349 1.0 3.0 0.01 0.07 0.07 94 1005.5
20210506003506 46 349 0.0 2.0 0.01 0.07 0.07 94 1005.3
20210506002506 46 349 0.0 1.0 0.01 0.07 0.07 94 1005.2
20210506002006 46 349 0.0 2.0 0.01 0.07 0.07 94 1005.1
20210506001505 46 349 0.0 2.0 0.01 0.07 0.07 94 1005.1
20210506001006 46 349 0.0 1.0 0.01 0.07 0.07 94 1004.8
20210506000506 46 349 0.0 2.0 0.01 0.07 0.07 94 1004.6
20210506000006 46 349 0.0 2.0 0.01 0.07 0.07 94 1004.6
20210505235507 46 349 1.0 3.0 0.01 0.07 0.07 94 1004.7
20210505235006 46 349 0.0 3.0 0.00 0.06 0.06 94 1004.8
20210505234007 46 349 0.0 1.0 0.00 0.06 0.06 94 1004.6
20210505233506 46 349 0.0 3.0 0.00 0.06 0.06 94 1004.6
20210505233006 46 349 0.0 3.0 0.00 0.06 0.06 94 1004.6
20210505232506 47 349 0.0 3.0 0.00 0.06 0.06 94 1004.6
20210505232007 47 349 0.0 2.0 0.00 0.06 0.06 94 1004.4
20210505231506 47 349 0.0 1.0 0.00 0.06 0.06 94 1004.3
20210505231007 47 349 1.0 3.0 0.00 0.06 0.06 94 1004.2
20210505230507 47 349 0.0 1.0 0.01 0.06 0.06 94 1004.1
20210505230006 47 349 0.0 2.0 0.01 0.06 0.06 94 1004.1
20210505225505 47 349 0.0 2.0 0.01 0.06 0.06 94 1004.2
20210505225006 47 349 0.0 2.0 0.02 0.06 0.06 94 1004.2
20210505223506 47 349 0.0 2.0 0.02 0.06 0.06 94 1004.1
20210505223007 47 349 0.0 2.0 0.02 0.06 0.06 94 1004.1
20210505222006 47 349 0.0 3.0 0.02 0.06 0.06 94 1004.0
20210505220506 47 349 0.0 1.0 0.02 0.05 0.05 94 1004.0
20210505220006 47 349 0.0 3.0 0.02 0.05 0.05 94 1004.1
20210505215006 47 349 0.0 2.0 0.01 0.04 0.04 94 1004.3
20210505214006 47 349 0.0 2.0 0.02 0.04 0.04 94 1004.2
20210505212506 48 349 0.0 1.0 0.02 0.04 0.04 94 1004.2
20210505212005 48 349 0.0 0.0 0.02 0.04 0.04 94 1004.3
20210505211506 48 349 0.0 0.0 0.02 0.04 0.04 94 1004.1
20210505211006 48 349 1.0 3.0 0.02 0.04 0.04 94 1004.1
20210505210006 48 349 0.0 1.0 0.01 0.03 0.03 94 1004.4
20210505204506 48 349 0.0 3.0 0.00 0.02 0.02 94 1004.4
20210505203506 48 349 0.0 1.0 0.00 0.02 0.02 94 1004.4
20210505203006 48 349 1.0 3.0 0.00 0.02 0.02 94 1004.2
20210505202506 48 36 0.0 1.0 0.00 0.02 0.02 94 1004.0
20210505201506 48 36 0.0 2.0 0.00 0.02 0.02 94 1004.0
20210505201006 48 36 0.0 1.0 0.00 0.02 0.02 94 1004.0
20210505200006 48 36 0.0 1.0 0.00 0.02 0.02 94 1004.0
20210505195506 48 36 0.0 1.0 0.00 0.02 0.02 94 1004.0
20210505194505 49 36 0.0 2.0 0.00 0.02 0.02 94 1004.1
20210505193506 49 37 0.0 2.0 0.00 0.02 0.02 94 1004.2
20210505193006 49 37 0.0 2.0 0.00 0.02 0.02 94 1004.3
20210505192024 49 36 0.0 2.0 0.01 0.02 0.02 94 1004.5
20210505191006 49 129 0.0 1.0 0.01 0.02 0.02 94 1004.5
20210505190506 49 129 0.0 1.0 0.01 0.02 0.02 94 1004.7
20210505190006 49 129 0.0 2.0 0.02 0.02 0.02 94 1004.8
20210505185505 49 130 0.0 0.0 0.02 0.02 0.02 94 1004.8
20210505184506 50 130 0.0 1.0 0.02 0.02 0.02 94 1004.9
20210505184006 50 130 0.0 1.0 0.02 0.02 0.02 94 1005.0
20210505183506 50 130 0.0 2.0 0.02 0.02 0.02 94 1005.0
20210505183006 50 132 0.0 2.0 0.02 0.02 0.02 94 1005.3
20210505182505 50 134 0.0 0.0 0.02 0.02 0.02 94 1005.5
20210505182006 50 134 0.0 1.0 0.01 0.01 0.01 94 1005.5
20210505181506 50 134 0.0 0.0 0.01 0.01 0.01 94 1005.5
20210505180506 50 134 0.0 0.0 0.01 0.01 0.01 94 1005.5
20210505180005 50 134 0.0 0.0 0.00 0.00 0.00 94 1005.3
20210505174506 50 134 0.0 1.0 0.00 0.00 0.00 94 1005.2
20210505174006 51 134 0.0 0.0 0.00 0.00 0.00 94 1005.3
20210505173506 51 133 0.0 0.0 0.00 0.00 0.00 94 1005.2
20210505173006 51 133 0.0 1.0 0.00 0.00 0.00 94 1005.2
20210505172006 50 134 0.0 0.0 0.00 0.00 0.00 94 1005.4
20210505171506 50 133 0.0 1.0 0.00 0.00 0.00 94 1005.5
20210505171005 50 134 0.0 1.0 0.00 0.00 0.00 94 1005.8
20210505170506 50 134 0.0 1.0 0.00 0.00 0.00 94 1005.9
20210505165506 50 134 0.0 1.0 0.00 0.00 0.00 94 1006.3
20210505164505 50 134 0.0 0.0 0.00 0.00 0.00 94 1006.4
20210505164006 50 134 0.0 1.0 0.00 0.00 0.00 94 1006.4
20210505163505 50 134 0.0 1.0 0.00 0.00 0.00 94 1006.5
20210505162505 50 134 0.0 0.0 0.00 0.00 0.00 94 1006.6
20210505160506 50 135 0.0 0.0 0.00 0.01 0.00 94 1006.8
20210505160006 50 135 0.0 0.0 0.00 0.01 0.00 94 1006.6
20210505155505 50 135 0.0 1.0 0.00 0.01 0.00 94 1006.6
20210505155006 50 135 1.0 3.0 0.00 0.01 0.00 94 1006.7
20210505153506 50 91 0.0 0.0 0.00 0.01 0.00 94 1007.0
20210505153006 50 91 0.0 1.0 0.00 0.01 0.00 94 1007.1
20210505152006 50 91 0.0 0.0 0.00 0.01 0.00 94 1007.2
20210505151506 50 91 0.0 0.0 0.00 0.01 0.00 94 1007.4
20210505151007 50 91 0.0 1.0 0.00 0.01 0.00 94 1007.4
20210505150505 49 91 0.0 3.0 0.00 0.01 0.00 94 1007.3
20210505145505 49 132 0.0 0.0 0.00 0.01 0.00 94 1007.4
20210505145006 49 132 0.0 0.0 0.00 0.01 0.00 94 1007.6
20210505144506 49 132 0.0 0.0 0.00 0.01 0.00 94 1007.6
20210505144005 49 132 0.0 0.0 0.00 0.01 0.00 94 1007.5
20210505143520 49 132 0.0 0.0 0.00 0.01 0.00 94 1007.6
20210505143006 49 132 0.0 0.0 0.00 0.01 0.00 94 1007.6
20210505142006 49 132 0.0 0.0 0.00 0.01 0.00 94 1007.8
20210505141505 49 132 0.0 0.0 0.00 0.01 0.00 94 1007.9
20210505140506 49 132 0.0 0.0 0.00 0.01 0.00 94 1007.9
20210505140007 49 132 0.0 0.0 0.00 0.01 0.00 94 1007.9
20210505135506 49 132 0.0 0.0 0.00 0.01 0.00 94 1007.9
20210505133506 48 132 0.0 1.0 0.00 0.02 0.00 94 1008.1
20210505133007 48 132 0.0 0.0 0.00 0.02 0.00 94 1008.2
20210505132506 48 132 0.0 0.0 0.00 0.02 0.00 94 1008.2
20210505132005 48 132 0.0 0.0 0.00 0.02 0.00 94 1008.3
20210505130006 48 132 0.0 0.0 0.00 0.02 0.00 94 1008.2
20210505125505 48 132 0.0 2.0 0.00 0.02 0.00 94 1008.3
20210505125006 48 132 0.0 1.0 0.00 0.02 0.00 94 1008.4
20210505123506 48 132 0.0 2.0 0.00 0.02 0.00 94 1008.5
20210505123006 48 132 0.0 1.0 0.00 0.02 0.00 94 1008.5
20210505122006 48 132 1.0 2.0 0.00 0.02 0.00 94 1008.4
20210505121505 48 132 0.0 3.0 0.00 0.02 0.00 94 1008.4
20210505121006 48 129 0.0 3.0 0.00 0.02 0.00 94 1008.5
20210505120006 48 128 0.0 0.0 0.00 0.02 0.00 94 1008.7
20210505115006 48 128 0.0 1.0 0.00 0.02 0.00 94 1008.9
20210505114506 48 128 0.0 0.0 0.00 0.02 0.00 94 1008.9
20210505114005 48 128 0.0 0.0 0.00 0.02 0.00 94 1009.0
20210505113006 48 128 0.0 0.0 0.00 0.02 0.00 94 1008.9
20210505112506 47 128 0.0 0.0 0.00 0.02 0.00 94 1009.1
20210505112006 47 127 0.0 0.0 0.00 0.02 0.00 94 1009.0
20210505111505 47 128 0.0 0.0 0.00 0.02 0.00 94 1009.0
20210505111006 47 128 0.0 0.0 0.00 0.02 0.00 94 1008.8
20210505105506 47 128 0.0 0.0 0.00 0.03 0.00 94 1008.6
20210505105006 47 128 0.0 0.0 0.00 0.03 0.00 94 1008.5